TimeEST,TemperatureF,Dew PointF,Humidity,Sea Level PressureIn,VisibilityMPH,Wind Direction,Wind SpeedMPH,Gust SpeedMPH,PrecipitationIn,Events,Conditions,WindDirDegrees,DateUTC
12:51 AM,5.0,-8.9,53,30.15,10.0,North,-9999.0,-,N/A,,Clear,0,2013-01-03 05:51:00
2:51 AM,4.1,-8.9,55,30.16,10.0,North,-9999.0,-,N/A,,Clear,0,2013-01-03 07:51:00
3:51 AM,1.0,-9.9,60,30.15,10.0,North,-9999.0,-,N/A,,Clear,0,2013-01-03 08:51:00
4:51 AM,-0.9,-9.9,66,30.14,10.0,North,-9999.0,-,N/A,,Clear,0,2013-01-03 09:51:00
5:51 AM,0.1,-8.9,66,30.14,10.0,North,-9999.0,-,N/A,,Clear,0,2013-01-03 10:51:00
6:51 AM,-2.9,-9.9,72,30.14,10.0,North,-9999.0,-,N/A,,Clear,0,2013-01-03 11:51:00
7:51 AM,-2.9,-9.9,72,30.15,10.0,Calm,Calm,-,N/A,,Clear,0,2013-01-03 12:51:00
8:51 AM,2.1,-6.9,66,30.14,10.0,Calm,Calm,-,N/A,,Clear,0,2013-01-03 13:51:00
9:51 AM,12.0,-6.0,44,30.14,10.0,NNW,12.7,-,N/A,,Clear,340,2013-01-03 14:51:00
10:51 AM,15.1,-6.0,39,30.12,10.0,NW,6.9,-,N/A,,Clear,320,2013-01-03 15:51:00
11:30 AM,17.6,-5.8,35,30.09,10.0,North,-9999.0,-,N/A,,Squalls,0,2013-01-03 16:30:00
11:51 AM,19.0,-4.9,35,30.10,10.0,WNW,8.1,-,N/A,,Clear,300,2013-01-03 16:51:00
12:41 PM,21.2,-4.0,33,30.05,10.0,North,-9999.0,-,N/A,,Squalls,0,2013-01-03 17:41:00
12:51 PM,21.0,-4.9,32,30.07,10.0,NW,12.7,-,N/A,,Clear,310,2013-01-03 17:51:00
1:51 PM,22.1,-6.0,29,30.05,10.0,North,9.2,24.2,N/A,,Clear,360,2013-01-03 18:51:00
1:59 PM,21.2,-7.6,28,30.03,10.0,NNW,11.5,92.1,N/A,,Squalls,340,2013-01-03 18:59:00
2:51 PM,22.1,-6.0,29,30.05,10.0,WNW,10.4,-,N/A,,Clear,300,2013-01-03 19:51:00
3:51 PM,22.1,-2.9,33,30.05,10.0,North,-9999.0,-,N/A,,Clear,0,2013-01-03 20:51:00
4:51 PM,18.1,2.1,50,30.04,10.0,North,-9999.0,-,N/A,,Clear,0,2013-01-03 21:51:00
5:51 PM,14.0,1.0,56,30.06,10.0,North,-9999.0,-,N/A,,Clear,0,2013-01-03 22:51:00
6:51 PM,12.0,1.0,61,30.06,10.0,North,-9999.0,-,N/A,,Overcast,0,2013-01-03 23:51:00
7:51 PM,13.1,3.0,64,30.06,10.0,North,-9999.0,-,N/A,,Mostly Cloudy,0,2013-01-04 00:51:00
8:51 PM,11.1,2.1,67,30.06,10.0,North,-9999.0,-,N/A,,Clear,0,2013-01-04 01:51:00
9:51 PM,11.1,5.0,76,30.05,10.0,North,-9999.0,-,N/A,,Clear,0,2013-01-04 02:51:00
10:51 PM,11.1,4.1,73,30.03,10.0,North,-9999.0,-,N/A,,Scattered Clouds,0,2013-01-04 03:51:00
11:51 PM,10.0,4.1,77,30.00,10.0,North,-9999.0,-,N/A,,Scattered Clouds,0,2013-01-04 04:51:00